Flag for Cuba Weather past 2 weeks in Holguín, Cuba

Now
73 °F

Passing clouds.


Feels Like: 72 °F
Forecast: 75 / 88 °F
Wind: 5 mph from Northeast

Location: Holguin Civ / Mil

Current Time: Sep 16, 2014 at 5:41:28 AM

Latest Report: Sep 16, 2014 at 4:50 AM


Visibility: 5 mi

Pressure: 29.98 "Hg

Humidity: 89%

Dew point: 70 °F

Location of HolguínLocation

Historic Weather in Holguín — Graph

°F

Holguín temperature yesterday

Maximum temperature yesterday: 90 °F (at 12:50 PM)
Minimum temperature yesterday: 73 °F (at 6:51 AM)
Average temperature yesterday: 81 °F

Past Weeks' High & Low Weather Summary

 TemperatureHumidityPressure
High95 °F (Sep 3, 2:50 PM)100% (Sep 1, 6:50 AM)30.07 "Hg (Sep 1, 6:50 AM)
Low68 °F (Sep 3, 1:51 AM)38% (Sep 11, 2:50 PM)29.86 "Hg (Sep 11, 4:50 PM)
Average79 °F80%29.98 "Hg
* Reported Sep 1 4:50 AM — Sep 16 4:50 AM, Holguín, Weather by CustomWeather, © 2014

Note: Actual official high and low records may vary slightly from our data, if they occured in-between our weather recording intervals... More about our weather records

Advertising

Holguín weather history for previous 24 hours

 ConditionsComfort  
Time TempWeatherWind HumidityBarometerVisibility
4:50 AM
Sep 16
73 °FPassing clouds.5 mph89%29.98 "Hg5 mi
3:50 AM73 °FPassing clouds.2 mph89%29.98 "Hg5 mi
2:50 AM75 °FLight rain. Passing clouds.7 mph83%30.01 "Hg5 mi
1:50 AM77 °FPassing clouds.3 mph83%30.04 "Hg5 mi
12:50 AM77 °FPassing clouds.3 mph83%30.04 "Hg5 mi
11:50 PM
Sep 15
77 °FPassing clouds.6 mph83%30.04 "Hg5 mi
10:50 PM79 °FPassing clouds.9 mph79%30.04 "Hg6 mi
9:50 PM79 °FPassing clouds.8 mph79%30.04 "Hg6 mi
8:50 PM79 °FPassing clouds.8 mph79%30.04 "Hg6 mi
7:52 PM81 °FThundershowers. Scattered clouds.10 mph74%30.01 "Hg6 mi
6:56 PM82 °FBroken clouds.13 mph66%29.98 "Hg6 mi
5:50 PM84 °FScattered clouds.6 mph62%29.98 "Hg6 mi
4:55 PM84 °FScattered clouds.9 mph58%29.98 "Hg6 mi
3:51 PM88 °FScattered clouds.13 mph52%29.98 "Hg6 mi
2:50 PM90 °FThundershowers. Partly sunny.13 mph46%N/A5 mi
1:50 PM90 °FPartly sunny.13 mph49%30.01 "HgN/A
12:50 PM90 °FPartly sunny.12 mph49%30.04 "HgN/A
11:50 AM88 °FPartly sunny.13 mph52%30.07 "HgN/A
10:55 AM86 °FScattered clouds.10 mph59%30.07 "Hg6 mi
9:55 AM84 °FBroken clouds.10 mph66%30.07 "Hg6 mi
8:50 AM81 °FPartly sunny.9 mph79%30.07 "Hg6 mi
7:55 AM77 °FPartly sunny.7 mph89%30.04 "Hg6 mi
6:51 AM73 °FFog.6 mph89%30.04 "Hg5 mi
5:50 AM75 °FLight rain. Passing clouds.6 mph89%30.04 "Hg6 mi
Weather by CustomWeather, © 2014

See weather overviewHow to use our weather pages